Retour au catalogue

STARLINK-33768

ActifCommunicationsVLEO
NORAD 63454·PAYLOAD·🇺🇸 United States

Lancé Apr 4, 2025 depuis Vandenberg Space Force Base

Loading…

Prochains Passages (prochaines 24 heures)

TLE

FraisSource: CelesTrak SupGP

Époque: Sep 14, 2026, 22:57 UTC

1 63454C 25069X   26257.95673611  .00008562  00000+0  25301-3 0  2575
2 63454  53.1587 335.7736 0001168  90.5588  92.9619 15.34380866    19

Suivez STARLINK-33768 en temps réel avec AllMySat

Download on the App Store